Time,TemperatureF,DewpointF,PressureIn,WindDirection,WindDirectionDegrees,WindSpeedMPH,WindSpeedGustMPH,Humidity,HourlyPrecipIn,Conditions,Clouds,dailyrainin,SoftwareType,DateUTC
2013-03-08 00:00:00,30.2,21.3,30.39,NNE,32,0.0,0.0,69,0.00,,OVC046,0.00,VWS V14.00,2013-03-08 05:00:00,
2013-03-08 00:01:00,30.2,21.3,30.40,NNE,32,0.0,0.0,69,0.00,,OVC044,0.00,VWS V14.00,2013-03-08 05:01:00,
2013-03-08 00:06:00,30.1,21.2,30.39,NNE,32,0.0,0.0,69,0.00,,OVC044,0.00,VWS V14.00,2013-03-08 05:06:00,
2013-03-08 00:11:00,30.0,21.4,30.40,NNE,32,0.0,0.0,70,0.00,,OVC044,0.00,VWS V14.00,2013-03-08 05:11:00,
2013-03-08 00:16:00,29.8,21.2,30.40,NNE,32,0.0,0.0,70,0.00,,OVC044,0.00,VWS V14.00,2013-03-08 05:16:00,
2013-03-08 00:21:00,29.4,20.8,30.40,NNE,32,0.0,0.0,70,0.00,,OVC044,0.00,VWS V14.00,2013-03-08 05:21:00,
2013-03-08 00:26:00,29.0,20.8,30.40,NNE,32,0.0,0.0,71,0.00,,OVC044,0.00,VWS V14.00,2013-03-08 05:26:00,
2013-03-08 00:31:00,28.6,21.1,30.40,NNE,32,0.0,0.0,73,0.00,,OVC044,0.00,VWS V14.00,2013-03-08 05:31:00,
2013-03-08 00:36:00,28.3,21.4,30.40,NNE,32,0.0,0.0,75,0.00,,OVC044,0.00,VWS V14.00,2013-03-08 05:36:00,
2013-03-08 00:41:00,27.9,21.3,30.40,NNE,32,0.0,0.0,76,0.00,,OVC044,0.00,VWS V14.00,2013-03-08 05:41:00,
2013-03-08 00:46:00,27.6,21.0,30.40,NNE,32,0.0,0.0,76,0.00,,OVC044,0.00,VWS V14.00,2013-03-08 05:46:00,
2013-03-08 00:51:00,27.5,21.2,30.40,NNE,32,0.0,0.0,77,0.00,,OVC044,0.00,VWS V14.00,2013-03-08 05:51:00,
2013-03-08 00:56:00,27.4,21.1,30.41,NNE,32,0.0,0.0,77,0.00,,OVC044,0.00,VWS V14.00,2013-03-08 05:56:00,
2013-03-08 01:01:00,27.4,21.1,30.41,NNE,32,0.0,0.0,77,0.00,,BKN044,0.00,VWS V14.00,2013-03-08 06:01:00,
2013-03-08 01:06:00,27.3,21.4,30.41,NNE,32,0.0,0.0,78,0.00,,BKN044,0.00,VWS V14.00,2013-03-08 06:06:00,
2013-03-08 01:11:00,27.2,21.3,30.40,NNE,32,0.0,0.0,78,0.00,,BKN044,0.00,VWS V14.00,2013-03-08 06:11:00,
2013-03-08 01:16:00,27.1,21.2,30.40,NNE,32,0.0,0.0,78,0.00,,BKN044,0.00,VWS V14.00,2013-03-08 06:16:00,
2013-03-08 01:21:00,27.0,21.1,30.41,NNE,32,0.0,0.0,78,0.00,,BKN044,0.00,VWS V14.00,2013-03-08 06:21:00,
2013-03-08 01:26:00,26.9,21.0,30.41,NNE,32,0.0,0.0,78,0.00,,BKN044,0.00,VWS V14.00,2013-03-08 06:26:00,
2013-03-08 01:31:00,26.8,20.9,30.41,NNE,32,0.0,0.0,78,0.00,,BKN044,0.00,VWS V14.00,2013-03-08 06:31:00,
2013-03-08 01:36:00,26.7,20.8,30.41,NNE,32,0.0,0.0,78,0.00,,BKN044,0.00,VWS V14.00,2013-03-08 06:36:00,
2013-03-08 01:41:00,26.6,20.7,30.42,NNE,32,0.0,0.0,78,0.00,,BKN044,0.00,VWS V14.00,2013-03-08 06:41:00,
2013-03-08 01:46:00,26.5,20.6,30.42,NNE,32,0.0,0.0,78,0.00,,BKN044,0.00,VWS V14.00,2013-03-08 06:46:00,
2013-03-08 01:51:00,26.3,20.4,30.42,NNE,32,0.0,0.0,78,0.00,,BKN044,0.00,VWS V14.00,2013-03-08 06:51:00,
2013-03-08 01:56:00,26.2,20.3,30.42,NNE,32,0.0,0.0,78,0.00,,BKN044,0.00,VWS V14.00,2013-03-08 06:56:00,
2013-03-08 02:01:00,26.1,20.2,30.42,NNE,32,0.0,0.0,78,0.00,,CLR,0.00,VWS V14.00,2013-03-08 07:01:00,
2013-03-08 02:06:00,26.1,20.2,30.42,NNE,32,0.0,0.0,78,0.00,,CLR,0.00,VWS V14.00,2013-03-08 07:06:00,
2013-03-08 02:11:00,26.0,20.1,30.42,NNE,32,0.0,0.0,78,0.00,,CLR,0.00,VWS V14.00,2013-03-08 07:11:00,
2013-03-08 02:16:00,25.8,19.9,30.42,NNE,32,0.0,0.0,78,0.00,,CLR,0.00,VWS V14.00,2013-03-08 07:16:00,
2013-03-08 02:21:00,25.7,19.8,30.42,NNE,32,0.0,0.0,78,0.00,,CLR,0.00,VWS V14.00,2013-03-08 07:21:00,
2013-03-08 02:26:00,25.6,20.0,30.42,NNE,32,0.0,0.0,79,0.00,,CLR,0.00,VWS V14.00,2013-03-08 07:26:00,
2013-03-08 02:31:00,25.6,20.0,30.43,NNE,32,0.0,0.0,79,0.00,,CLR,0.00,VWS V14.00,2013-03-08 07:31:00,
2013-03-08 02:36:00,25.6,20.0,30.42,NNE,32,0.0,0.0,79,0.00,,CLR,0.00,VWS V14.00,2013-03-08 07:36:00,
2013-03-08 02:41:00,25.6,20.0,30.42,NNE,32,0.0,0.0,79,0.00,,CLR,0.00,VWS V14.00,2013-03-08 07:41:00,
2013-03-08 02:46:00,25.6,20.0,30.42,NNE,32,0.0,0.0,79,0.00,,CLR,0.00,VWS V14.00,2013-03-08 07:46:00,
2013-03-08 02:51:00,25.6,20.0,30.42,NNE,32,0.0,0.0,79,0.00,,CLR,0.00,VWS V14.00,2013-03-08 07:51:00,
2013-03-08 02:56:00,25.6,20.0,30.42,NNE,32,0.0,0.0,79,0.00,,CLR,0.00,VWS V14.00,2013-03-08 07:56:00,
2013-03-08 03:01:00,25.4,19.8,30.42,NNE,32,0.0,0.0,79,0.00,,CLR,0.00,VWS V14.00,2013-03-08 08:01:00,
2013-03-08 03:06:00,25.3,19.7,30.42,NNE,32,0.0,0.0,79,0.00,,CLR,0.00,VWS V14.00,2013-03-08 08:06:00,
2013-03-08 03:11:00,25.2,19.9,30.42,NNE,32,0.0,0.0,80,0.00,,CLR,0.00,VWS V14.00,2013-03-08 08:11:00,
2013-03-08 03:16:00,25.1,19.8,30.42,NNE,32,0.0,0.0,80,0.00,,CLR,0.00,VWS V14.00,2013-03-08 08:16:00,
2013-03-08 03:21:00,25.2,19.9,30.42,NNE,32,0.0,0.0,80,0.00,,CLR,0.00,VWS V14.00,2013-03-08 08:21:00,
2013-03-08 03:26:00,25.1,20.1,30.42,NNE,32,0.0,0.0,81,0.00,,CLR,0.00,VWS V14.00,2013-03-08 08:26:00,
2013-03-08 03:31:00,25.1,20.1,30.42,NNE,32,0.0,0.0,81,0.00,,CLR,0.00,VWS V14.00,2013-03-08 08:31:00,
2013-03-08 03:36:00,24.9,19.9,30.42,NNE,32,0.0,0.0,81,0.00,,CLR,0.00,VWS V14.00,2013-03-08 08:36:00,
2013-03-08 03:41:00,24.9,20.2,30.42,NNE,32,0.0,0.0,82,0.00,,CLR,0.00,VWS V14.00,2013-03-08 08:41:00,
2013-03-08 03:46:00,24.9,20.2,30.42,NNE,32,0.0,0.0,82,0.00,,CLR,0.00,VWS V14.00,2013-03-08 08:46:00,
2013-03-08 03:51:00,24.9,20.2,30.42,NNE,32,0.0,0.0,82,0.00,,CLR,0.00,VWS V14.00,2013-03-08 08:51:00,
2013-03-08 03:56:00,24.9,20.5,30.42,NNE,32,0.0,0.0,83,0.00,,CLR,0.00,VWS V14.00,2013-03-08 08:56:00,
2013-03-08 04:01:00,24.7,20.0,30.42,NNE,32,0.0,0.0,82,0.00,,CLR,0.00,VWS V14.00,2013-03-08 09:01:00,
2013-03-08 04:06:00,24.6,19.9,30.42,NNE,32,0.0,0.0,82,0.00,,CLR,0.00,VWS V14.00,2013-03-08 09:06:00,
2013-03-08 04:11:00,24.5,19.8,30.43,NNE,32,0.0,0.0,82,0.00,,CLR,0.00,VWS V14.00,2013-03-08 09:11:00,
2013-03-08 04:16:00,24.3,19.6,30.42,NNE,32,0.0,0.0,82,0.00,,CLR,0.00,VWS V14.00,2013-03-08 09:16:00,
2013-03-08 04:21:00,24.2,19.8,30.43,NNE,32,0.0,0.0,83,0.00,,CLR,0.00,VWS V14.00,2013-03-08 09:21:00,
2013-03-08 04:26:00,24.0,19.3,30.43,NNE,32,0.0,0.0,82,0.00,,CLR,0.00,VWS V14.00,2013-03-08 09:26:00,
2013-03-08 04:31:00,24.0,19.6,30.43,NNE,32,0.0,0.0,83,0.00,,CLR,0.00,VWS V14.00,2013-03-08 09:31:00,
2013-03-08 04:36:00,23.9,19.5,30.43,NNE,32,0.0,0.0,83,0.00,,CLR,0.00,VWS V14.00,2013-03-08 09:36:00,
2013-03-08 04:41:00,23.8,19.1,30.43,NNE,32,0.0,0.0,82,0.00,,CLR,0.00,VWS V14.00,2013-03-08 09:41:00,
2013-03-08 04:46:00,23.5,19.1,30.43,NNE,32,0.0,0.0,83,0.00,,CLR,0.00,VWS V14.00,2013-03-08 09:46:00,
2013-03-08 04:51:00,23.4,19.0,30.43,NNE,32,0.0,0.0,83,0.00,,CLR,0.00,VWS V14.00,2013-03-08 09:51:00,
2013-03-08 04:56:00,23.3,18.9,30.44,NNE,32,0.0,0.0,83,0.00,,CLR,0.00,VWS V14.00,2013-03-08 09:56:00,
2013-03-08 05:01:00,23.2,18.8,30.44,NNE,32,0.0,0.0,83,0.00,,CLR,0.00,VWS V14.00,2013-03-08 10:01:00,
2013-03-08 05:06:00,23.2,18.8,30.44,NNE,32,0.0,0.0,83,0.00,,CLR,0.00,VWS V14.00,2013-03-08 10:06:00,
2013-03-08 05:11:00,23.2,19.1,30.44,NNE,32,0.0,0.0,84,0.00,,CLR,0.00,VWS V14.00,2013-03-08 10:11:00,
2013-03-08 05:16:00,23.2,19.1,30.44,NNE,32,0.0,0.0,84,0.00,,CLR,0.00,VWS V14.00,2013-03-08 10:16:00,
2013-03-08 05:21:00,23.4,19.3,30.44,NNE,32,0.0,0.0,84,0.00,,CLR,0.00,VWS V14.00,2013-03-08 10:21:00,
2013-03-08 05:26:00,23.5,19.4,30.44,NNE,32,0.0,0.0,84,0.00,,CLR,0.00,VWS V14.00,2013-03-08 10:26:00,
2013-03-08 05:31:00,23.4,19.3,30.44,NNE,32,0.0,0.0,84,0.00,,CLR,0.00,VWS V14.00,2013-03-08 10:31:00,
2013-03-08 05:36:00,23.4,19.3,30.44,NNE,32,0.0,0.0,84,0.00,,CLR,0.00,VWS V14.00,2013-03-08 10:36:00,
2013-03-08 05:41:00,23.3,19.2,30.45,NNE,32,0.0,0.0,84,0.00,,CLR,0.00,VWS V14.00,2013-03-08 10:41:00,
2013-03-08 05:46:00,23.4,19.6,30.45,NNE,32,0.0,0.0,85,0.00,,CLR,0.00,VWS V14.00,2013-03-08 10:46:00,
2013-03-08 05:51:00,23.5,19.7,30.45,NNE,32,0.0,0.0,85,0.00,,CLR,0.00,VWS V14.00,2013-03-08 10:51:00,
2013-03-08 05:56:00,23.5,19.4,30.46,NNE,32,0.0,0.0,84,0.00,,CLR,0.00,VWS V14.00,2013-03-08 10:56:00,
2013-03-08 06:01:00,23.5,19.4,30.46,NNE,32,0.0,0.0,84,0.00,,CLR,0.00,VWS V14.00,2013-03-08 11:01:00,
2013-03-08 06:06:00,23.6,19.5,30.46,NNE,32,0.0,0.0,84,0.00,,CLR,0.00,VWS V14.00,2013-03-08 11:06:00,
2013-03-08 06:11:00,23.6,19.5,30.46,NNE,32,0.0,0.0,84,0.00,,CLR,0.00,VWS V14.00,2013-03-08 11:11:00,
2013-03-08 06:16:00,23.6,19.5,30.46,NNE,32,0.0,0.0,84,0.00,,CLR,0.00,VWS V14.00,2013-03-08 11:16:00,
2013-03-08 06:21:00,23.6,19.5,30.46,NNE,32,0.0,0.0,84,0.00,,CLR,0.00,VWS V14.00,2013-03-08 11:21:00,
2013-03-08 06:26:00,23.6,19.5,30.46,NNE,32,0.0,0.0,84,0.00,,CLR,0.00,VWS V14.00,2013-03-08 11:26:00,
2013-03-08 06:31:00,23.6,19.5,30.47,NNE,32,0.0,0.0,84,0.00,,CLR,0.00,VWS V14.00,2013-03-08 11:31:00,
2013-03-08 06:36:00,23.6,19.5,30.46,NNE,32,0.0,0.0,84,0.00,,CLR,0.00,VWS V14.00,2013-03-08 11:36:00,
2013-03-08 06:41:00,23.5,19.4,30.47,NNE,32,0.0,0.0,84,0.00,,CLR,0.00,VWS V14.00,2013-03-08 11:41:00,
2013-03-08 06:46:00,23.3,18.9,30.47,NNE,32,0.0,0.0,83,0.00,,CLR,0.00,VWS V14.00,2013-03-08 11:46:00,
2013-03-08 06:51:00,23.0,18.6,30.47,NNE,32,0.0,0.0,83,0.00,,CLR,0.00,VWS V14.00,2013-03-08 11:51:00,
2013-03-08 06:56:00,22.8,18.4,30.47,NNE,32,0.0,0.0,83,0.00,,CLR,0.00,VWS V14.00,2013-03-08 11:56:00,
2013-03-08 07:01:00,22.7,18.6,30.47,NNE,32,0.0,0.0,84,0.00,,CLR,0.00,VWS V14.00,2013-03-08 12:01:00,
2013-03-08 07:06:00,22.5,18.4,30.47,NNE,32,0.0,0.0,84,0.00,,CLR,0.00,VWS V14.00,2013-03-08 12:06:00,
2013-03-08 07:11:00,22.4,18.3,30.48,NNE,32,0.0,0.0,84,0.00,,CLR,0.00,VWS V14.00,2013-03-08 12:11:00,
2013-03-08 07:16:00,22.3,18.2,30.48,NNE,32,0.0,0.0,84,0.00,,CLR,0.00,VWS V14.00,2013-03-08 12:16:00,
2013-03-08 07:21:00,22.4,18.3,30.48,NNE,32,0.0,0.0,84,0.00,,CLR,0.00,VWS V14.00,2013-03-08 12:21:00,
2013-03-08 07:26:00,22.3,18.5,30.48,NNE,32,0.0,0.0,85,0.00,,CLR,0.00,VWS V14.00,2013-03-08 12:26:00,
2013-03-08 07:31:00,22.4,18.6,30.48,NNE,32,0.0,0.0,85,0.00,,CLR,0.00,VWS V14.00,2013-03-08 12:31:00,
2013-03-08 07:36:00,22.4,18.6,30.48,NNE,32,0.0,0.0,85,0.00,,CLR,0.00,VWS V14.00,2013-03-08 12:36:00,
2013-03-08 07:41:00,22.6,18.8,30.48,NNE,32,0.0,0.0,85,0.00,,CLR,0.00,VWS V14.00,2013-03-08 12:41:00,
2013-03-08 07:46:00,22.9,19.4,30.48,NNE,32,0.0,0.0,86,0.00,,CLR,0.00,VWS V14.00,2013-03-08 12:46:00,
2013-03-08 07:51:00,23.2,19.6,30.48,NNE,32,0.0,0.0,86,0.00,,CLR,0.00,VWS V14.00,2013-03-08 12:51:00,
2013-03-08 07:56:00,23.8,20.2,30.48,NNE,32,0.0,0.0,86,0.00,,CLR,0.00,VWS V14.00,2013-03-08 12:56:00,
2013-03-08 08:01:00,24.3,20.7,30.49,NNE,32,0.0,1.0,86,0.00,,CLR,0.00,VWS V14.00,2013-03-08 13:01:00,
2013-03-08 08:06:00,24.9,21.0,30.49,NNE,32,0.0,2.0,85,0.00,,CLR,0.00,VWS V14.00,2013-03-08 13:06:00,
2013-03-08 08:11:00,25.6,21.7,30.49,NNE,32,0.0,0.0,85,0.00,,CLR,0.00,VWS V14.00,2013-03-08 13:11:00,
2013-03-08 08:16:00,26.1,21.9,30.49,NNE,28,0.0,4.0,84,0.00,,CLR,0.00,VWS V14.00,2013-03-08 13:16:00,
2013-03-08 08:21:00,26.6,22.1,30.49,North,11,0.0,4.0,83,0.00,,CLR,0.00,VWS V14.00,2013-03-08 13:21:00,
2013-03-08 08:26:00,27.1,22.4,30.49,North,11,0.0,4.0,82,0.00,,CLR,0.00,VWS V14.00,2013-03-08 13:26:00,
2013-03-08 08:31:00,27.6,22.2,30.49,North,10,0.0,0.0,80,0.00,,CLR,0.00,VWS V14.00,2013-03-08 13:31:00,
2013-03-08 08:36:00,28.1,22.4,30.49,North,10,3.0,3.0,79,0.00,,CLR,0.00,VWS V14.00,2013-03-08 13:36:00,
2013-03-08 08:41:00,28.6,22.9,30.50,North,9,3.0,3.0,79,0.00,,CLR,0.00,VWS V14.00,2013-03-08 13:41:00,
2013-03-08 08:46:00,29.0,22.7,30.50,North,9,0.0,4.0,77,0.00,,CLR,0.00,VWS V14.00,2013-03-08 13:46:00,
2013-03-08 08:51:00,29.6,23.0,30.50,North,9,0.0,0.0,76,0.00,,CLR,0.00,VWS V14.00,2013-03-08 13:51:00,
2013-03-08 08:56:00,30.1,23.5,30.50,North,9,0.0,2.0,76,0.00,,CLR,0.00,VWS V14.00,2013-03-08 13:56:00,
2013-03-08 09:01:00,30.7,24.0,30.49,North,9,2.0,2.0,76,0.00,,CLR,0.00,VWS V14.00,2013-03-08 14:01:00,
2013-03-08 09:06:00,31.0,23.7,30.50,North,9,0.0,4.0,74,0.00,,CLR,0.00,VWS V14.00,2013-03-08 14:06:00,
2013-03-08 09:11:00,31.2,23.9,30.50,North,9,0.0,1.0,74,0.00,,CLR,0.00,VWS V14.00,2013-03-08 14:11:00,
2013-03-08 09:16:00,31.5,23.9,30.50,North,360,0.0,3.0,73,0.00,,CLR,0.00,VWS V14.00,2013-03-08 14:16:00,
2013-03-08 09:21:00,31.8,23.8,30.50,North,5,0.0,0.0,72,0.00,,CLR,0.00,VWS V14.00,2013-03-08 14:21:00,
2013-03-08 09:26:00,32.0,23.7,30.50,North,5,2.0,3.0,71,0.00,,CLR,0.00,VWS V14.00,2013-03-08 14:26:00,
2013-03-08 09:31:00,32.3,23.6,30.50,North,5,0.0,1.0,70,0.00,,CLR,0.00,VWS V14.00,2013-03-08 14:31:00,
2013-03-08 09:36:00,32.5,23.8,30.50,NNW,338,0.0,5.0,70,0.00,,CLR,0.00,VWS V14.00,2013-03-08 14:36:00,
2013-03-08 09:41:00,33.0,23.6,30.50,NNW,343,0.0,3.0,68,0.00,,CLR,0.00,VWS V14.00,2013-03-08 14:41:00,
2013-03-08 09:46:00,33.4,23.6,30.50,NE,39,5.0,5.0,67,0.00,,CLR,0.00,VWS V14.00,2013-03-08 14:46:00,
2013-03-08 09:51:00,33.7,23.6,30.50,NNE,32,2.0,3.0,66,0.00,,CLR,0.00,VWS V14.00,2013-03-08 14:51:00,
2013-03-08 09:56:00,33.8,23.3,30.50,North,360,0.0,4.0,65,0.00,,CLR,0.00,VWS V14.00,2013-03-08 14:56:00,
2013-03-08 10:01:00,33.9,22.6,30.50,North,355,0.0,5.0,63,0.00,,CLR,0.00,VWS V14.00,2013-03-08 15:01:00,
2013-03-08 10:06:00,34.1,23.2,30.50,North,350,7.0,7.0,64,0.00,,CLR,0.00,VWS V14.00,2013-03-08 15:06:00,
2013-03-08 10:11:00,34.2,23.3,30.50,North,360,0.0,2.0,64,0.00,,CLR,0.00,VWS V14.00,2013-03-08 15:11:00,
2013-03-08 10:16:00,34.4,23.5,30.49,ENE,57,0.0,5.0,64,0.00,,CLR,0.00,VWS V14.00,2013-03-08 15:16:00,
2013-03-08 10:21:00,34.5,22.8,30.49,NNE,21,4.0,5.0,62,0.00,,CLR,0.00,VWS V14.00,2013-03-08 15:21:00,
2013-03-08 10:26:00,34.8,23.5,30.49,ENE,69,5.0,5.0,63,0.00,,CLR,0.00,VWS V14.00,2013-03-08 15:26:00,
2013-03-08 10:31:00,35.4,23.3,30.49,ENE,63,1.0,4.0,61,0.00,,CLR,0.00,VWS V14.00,2013-03-08 15:31:00,
2013-03-08 10:36:00,35.8,22.9,30.49,NNE,27,0.0,5.0,59,0.00,,CLR,0.00,VWS V14.00,2013-03-08 15:36:00,
2013-03-08 10:41:00,36.2,23.7,30.49,NE,39,0.0,3.0,60,0.00,,CLR,0.00,VWS V14.00,2013-03-08 15:41:00,
2013-03-08 10:46:00,36.3,23.4,30.49,NE,38,0.0,4.0,59,0.00,,CLR,0.00,VWS V14.00,2013-03-08 15:46:00,
2013-03-08 10:51:00,36.4,23.5,30.49,NE,45,2.0,3.0,59,0.00,,CLR,0.00,VWS V14.00,2013-03-08 15:51:00,
2013-03-08 10:56:00,37.0,24.0,30.49,ENE,68,2.0,6.0,59,0.00,,CLR,0.00,VWS V14.00,2013-03-08 15:56:00,
2013-03-08 11:01:00,37.2,23.4,30.49,North,360,2.0,4.0,57,0.00,,CLR,0.00,VWS V14.00,2013-03-08 16:01:00,
2013-03-08 11:06:00,37.0,24.0,30.49,North,5,0.0,6.0,59,0.00,,CLR,0.00,VWS V14.00,2013-03-08 16:06:00,
2013-03-08 11:11:00,37.1,24.1,30.49,East,79,0.0,3.0,59,0.00,,CLR,0.00,VWS V14.00,2013-03-08 16:11:00,
2013-03-08 11:15:00,37.5,24.1,30.50,NE,38,0.0,7.0,58,0.00,,CLR,0.00,VWS V14.00,2013-03-08 16:15:00,
2013-03-08 11:20:00,38.1,25.1,30.49,ENE,71,4.0,6.0,59,0.00,,CLR,0.00,VWS V14.00,2013-03-08 16:20:00,
2013-03-08 11:25:00,38.7,24.8,30.49,NNW,345,4.0,6.0,57,0.00,,CLR,0.00,VWS V14.00,2013-03-08 16:25:00,
2013-03-08 11:30:00,38.6,25.1,30.49,North,355,2.0,4.0,58,0.00,,CLR,0.00,VWS V14.00,2013-03-08 16:30:00,
2013-03-08 11:35:00,38.5,24.6,30.49,North,350,0.0,6.0,57,0.00,,CLR,0.00,VWS V14.00,2013-03-08 16:35:00,
2013-03-08 11:40:00,38.8,25.7,30.49,NE,42,0.0,0.0,59,0.00,,CLR,0.00,VWS V14.00,2013-03-08 16:40:00,
2013-03-08 11:45:00,39.1,24.3,30.49,ESE,117,2.0,5.0,55,0.00,,CLR,0.00,VWS V14.00,2013-03-08 16:45:00,
2013-03-08 11:50:00,39.3,24.5,30.49,East,89,0.0,5.0,55,0.00,,CLR,0.00,VWS V14.00,2013-03-08 16:50:00,
2013-03-08 11:55:00,39.4,25.0,30.49,North,360,0.0,5.0,56,0.00,,CLR,0.00,VWS V14.00,2013-03-08 16:55:00,
2013-03-08 12:00:00,39.5,24.2,30.49,North,360,0.0,3.0,54,0.00,,CLR,0.00,VWS V14.00,2013-03-08 17:00:00,
2013-03-08 12:05:00,39.7,24.4,30.48,North,360,0.0,4.0,54,0.00,,CLR,0.00,VWS V14.00,2013-03-08 17:05:00,
2013-03-08 12:10:00,40.2,25.8,30.48,East,88,0.0,3.0,56,0.00,,CLR,0.00,VWS V14.00,2013-03-08 17:10:00,
2013-03-08 12:15:00,41.0,25.6,30.48,ENE,60,0.0,6.0,54,0.00,,CLR,0.00,VWS V14.00,2013-03-08 17:15:00,
2013-03-08 12:20:00,40.8,25.0,30.48,NE,53,0.0,5.0,53,0.00,,CLR,0.00,VWS V14.00,2013-03-08 17:20:00,
2013-03-08 12:25:00,40.6,24.4,30.48,NNE,26,0.0,5.0,52,0.00,,CLR,0.00,VWS V14.00,2013-03-08 17:25:00,
2013-03-08 12:30:00,40.4,24.6,30.48,North,360,1.0,3.0,53,0.00,,CLR,0.00,VWS V14.00,2013-03-08 17:30:00,
2013-03-08 12:35:00,40.7,24.9,30.48,North,5,4.0,4.0,53,0.00,,CLR,0.00,VWS V14.00,2013-03-08 17:35:00,
2013-03-08 12:40:00,40.8,25.0,30.48,NNW,346,1.0,1.0,53,0.00,,CLR,0.00,VWS V14.00,2013-03-08 17:40:00,
2013-03-08 12:45:00,41.1,25.3,30.48,NE,56,0.0,5.0,53,0.00,,CLR,0.00,VWS V14.00,2013-03-08 17:45:00,
2013-03-08 12:50:00,41.2,25.8,30.47,NE,56,1.0,1.0,54,0.00,,CLR,0.00,VWS V14.00,2013-03-08 17:50:00,
2013-03-08 12:55:00,41.7,25.9,30.47,North,360,3.0,5.0,53,0.00,,CLR,0.00,VWS V14.00,2013-03-08 17:55:00,
2013-03-08 13:00:00,41.4,26.0,30.47,NE,41,0.0,2.0,54,0.00,,CLR,0.00,VWS V14.00,2013-03-08 18:00:00,
2013-03-08 13:05:00,41.9,25.6,30.46,NNE,19,4.0,4.0,52,0.00,,CLR,0.00,VWS V14.00,2013-03-08 18:05:00,
2013-03-08 13:10:00,42.0,26.1,30.46,ENE,67,0.0,4.0,53,0.00,,CLR,0.00,VWS V14.00,2013-03-08 18:10:00,
2013-03-08 13:15:00,42.6,26.7,30.46,NNE,26,4.0,4.0,53,0.00,,CLR,0.00,VWS V14.00,2013-03-08 18:15:00,
2013-03-08 13:20:00,42.6,25.8,30.46,NW,323,3.0,6.0,51,0.00,,CLR,0.00,VWS V14.00,2013-03-08 18:20:00,
2013-03-08 13:25:00,42.5,26.6,30.46,NE,46,0.0,6.0,53,0.00,,CLR,0.00,VWS V14.00,2013-03-08 18:25:00,
2013-03-08 13:30:00,42.6,25.8,30.45,NNE,26,0.0,4.0,51,0.00,,CLR,0.00,VWS V14.00,2013-03-08 18:30:00,
2013-03-08 13:35:00,43.2,28.1,30.45,East,94,0.0,5.0,55,0.00,,CLR,0.00,VWS V14.00,2013-03-08 18:35:00,
2013-03-08 13:40:00,43.7,26.8,30.45,NNW,344,0.0,7.0,51,0.00,,CLR,0.00,VWS V14.00,2013-03-08 18:40:00,
2013-03-08 13:45:00,43.7,27.2,30.45,NNW,331,0.0,7.0,52,0.00,,CLR,0.00,VWS V14.00,2013-03-08 18:45:00,
2013-03-08 13:50:00,43.3,26.4,30.45,West,281,4.0,4.0,51,0.00,,CLR,0.00,VWS V14.00,2013-03-08 18:50:00,
2013-03-08 13:55:00,43.4,27.9,30.45,NE,53,1.0,7.0,54,0.00,,CLR,0.00,VWS V14.00,2013-03-08 18:55:00,
2013-03-08 14:00:00,43.3,26.4,30.45,NE,40,1.0,5.0,51,0.00,,CLR,0.00,VWS V14.00,2013-03-08 19:00:00,
2013-03-08 14:05:00,43.1,26.2,30.44,NNW,336,2.0,6.0,51,0.00,,CLR,0.00,VWS V14.00,2013-03-08 19:05:00,
2013-03-08 14:10:00,43.2,27.7,30.44,North,360,1.0,3.0,54,0.00,,CLR,0.00,VWS V14.00,2013-03-08 19:10:00,
2013-03-08 14:15:00,43.8,27.3,30.44,North,5,1.0,4.0,52,0.00,,CLR,0.00,VWS V14.00,2013-03-08 19:15:00,
2013-03-08 14:20:00,44.0,27.5,30.44,NNE,19,2.0,3.0,52,0.00,,CLR,0.00,VWS V14.00,2013-03-08 19:20:00,
2013-03-08 14:25:00,43.8,27.3,30.44,NNW,336,0.0,5.0,52,0.00,,CLR,0.00,VWS V14.00,2013-03-08 19:25:00,
2013-03-08 14:30:00,44.2,28.2,30.44,NNE,19,0.0,2.0,53,0.00,,CLR,0.00,VWS V14.00,2013-03-08 19:30:00,
2013-03-08 14:35:00,44.9,27.4,30.44,East,91,0.0,2.0,50,0.00,,CLR,0.00,VWS V14.00,2013-03-08 19:35:00,
2013-03-08 14:40:00,45.3,27.8,30.44,ESE,116,0.0,5.0,50,0.00,,CLR,0.00,VWS V14.00,2013-03-08 19:40:00,
2013-03-08 14:45:00,45.4,26.9,30.44,NE,42,0.0,5.0,48,0.00,,CLR,0.00,VWS V14.00,2013-03-08 19:45:00,
2013-03-08 14:50:00,45.4,27.9,30.44,ENE,57,0.0,3.0,50,0.00,,CLR,0.00,VWS V14.00,2013-03-08 19:50:00,
2013-03-08 14:55:00,45.8,28.2,30.44,ENE,58,0.0,3.0,50,0.00,,CLR,0.00,VWS V14.00,2013-03-08 19:55:00,
2013-03-08 15:00:00,46.3,27.7,30.43,SE,126,5.0,5.0,48,0.00,,CLR,0.00,VWS V14.00,2013-03-08 20:00:00,
2013-03-08 15:05:00,46.7,27.6,30.43,ESE,119,0.0,5.0,47,0.00,,CLR,0.00,VWS V14.00,2013-03-08 20:05:00,
2013-03-08 15:10:00,46.6,26.9,30.43,ESE,113,2.0,2.0,46,0.00,,CLR,0.00,VWS V14.00,2013-03-08 20:10:00,
2013-03-08 15:15:00,46.4,26.8,30.43,South,169,1.0,4.0,46,0.00,,CLR,0.00,VWS V14.00,2013-03-08 20:15:00,
2013-03-08 15:20:00,46.0,26.9,30.44,East,96,1.0,2.0,47,0.00,,CLR,0.00,VWS V14.00,2013-03-08 20:20:00,
2013-03-08 15:25:00,46.2,27.1,30.43,SSE,153,0.0,5.0,47,0.00,,CLR,0.00,VWS V14.00,2013-03-08 20:25:00,
2013-03-08 15:30:00,45.9,27.3,30.43,SE,140,0.0,5.0,48,0.00,,CLR,0.00,VWS V14.00,2013-03-08 20:30:00,
2013-03-08 15:35:00,45.3,26.8,30.43,SE,130,0.0,6.0,48,0.00,,CLR,0.00,VWS V14.00,2013-03-08 20:35:00,
2013-03-08 15:40:00,45.1,26.6,30.43,ESE,113,0.0,1.0,48,0.00,,CLR,0.00,VWS V14.00,2013-03-08 20:40:00,
2013-03-08 15:45:00,44.3,25.9,30.43,NNE,28,0.0,6.0,48,0.00,,CLR,0.00,VWS V14.00,2013-03-08 20:45:00,
2013-03-08 15:50:00,44.6,27.6,30.43,East,91,1.0,3.0,51,0.00,,CLR,0.00,VWS V14.00,2013-03-08 20:50:00,
2013-03-08 15:55:00,45.2,27.2,30.43,SSE,150,0.0,6.0,49,0.00,,CLR,0.00,VWS V14.00,2013-03-08 20:55:00,
2013-03-08 16:00:00,45.5,27.5,30.43,East,80,0.0,4.0,49,0.00,,CLR,0.00,VWS V14.00,2013-03-08 21:00:00,
2013-03-08 16:05:00,45.7,27.1,30.43,East,99,0.0,5.0,48,0.00,,CLR,0.00,VWS V14.00,2013-03-08 21:05:00,
2013-03-08 16:10:00,45.9,27.8,30.43,ESE,107,0.0,3.0,49,0.00,,CLR,0.00,VWS V14.00,2013-03-08 21:10:00,
2013-03-08 16:15:00,46.0,26.4,30.43,SSE,166,0.0,3.0,46,0.00,,CLR,0.00,VWS V14.00,2013-03-08 21:15:00,
2013-03-08 16:20:00,45.5,26.5,30.43,ESE,123,0.0,4.0,47,0.00,,CLR,0.00,VWS V14.00,2013-03-08 21:20:00,
2013-03-08 16:25:00,45.6,26.5,30.43,SSE,167,0.0,4.0,47,0.00,,CLR,0.00,VWS V14.00,2013-03-08 21:25:00,
2013-03-08 16:30:00,45.6,27.1,30.43,ESE,115,0.0,0.0,48,0.00,,CLR,0.00,VWS V14.00,2013-03-08 21:30:00,
2013-03-08 16:35:00,45.7,27.1,30.43,ENE,71,2.0,3.0,48,0.00,,CLR,0.00,VWS V14.00,2013-03-08 21:35:00,
2013-03-08 16:40:00,45.8,27.2,30.42,ENE,63,1.0,3.0,48,0.00,,CLR,0.00,VWS V14.00,2013-03-08 21:40:00,
2013-03-08 16:45:00,45.9,26.8,30.42,East,82,0.0,3.0,47,0.00,,CLR,0.00,VWS V14.00,2013-03-08 21:45:00,
2013-03-08 16:50:00,45.6,27.1,30.42,East,90,0.0,1.0,48,0.00,,CLR,0.00,VWS V14.00,2013-03-08 21:50:00,
2013-03-08 16:55:00,45.1,26.6,30.42,ENE,71,0.0,4.0,48,0.00,,CLR,0.00,VWS V14.00,2013-03-08 21:55:00,
2013-03-08 17:00:00,44.9,26.4,30.42,ENE,69,0.0,0.0,48,0.00,,CLR,0.00,VWS V14.00,2013-03-08 22:00:00,
2013-03-08 17:05:00,44.7,26.7,30.42,ESE,109,3.0,3.0,49,0.00,,CLR,0.00,VWS V14.00,2013-03-08 22:05:00,
2013-03-08 17:10:00,44.5,26.5,30.42,ESE,113,4.0,6.0,49,0.00,,CLR,0.00,VWS V14.00,2013-03-08 22:10:00,
2013-03-08 17:15:00,44.2,26.3,30.42,ESE,102,0.0,6.0,49,0.00,,CLR,0.00,VWS V14.00,2013-03-08 22:15:00,
2013-03-08 17:20:00,44.2,26.8,30.42,East,99,1.0,3.0,50,0.00,,CLR,0.00,VWS V14.00,2013-03-08 22:20:00,
2013-03-08 17:25:00,44.0,26.6,30.42,East,100,0.0,3.0,50,0.00,,CLR,0.00,VWS V14.00,2013-03-08 22:25:00,
2013-03-08 17:30:00,43.8,26.9,30.42,East,94,2.0,4.0,51,0.00,,CLR,0.00,VWS V14.00,2013-03-08 22:30:00,
2013-03-08 17:35:00,43.6,27.6,30.42,ENE,69,5.0,6.0,53,0.00,,CLR,0.00,VWS V14.00,2013-03-08 22:35:00,
2013-03-08 17:40:00,43.2,27.2,30.42,ENE,67,0.0,6.0,53,0.00,,CLR,0.00,VWS V14.00,2013-03-08 22:40:00,
2013-03-08 17:45:00,42.7,27.2,30.42,East,82,0.0,6.0,54,0.00,,CLR,0.00,VWS V14.00,2013-03-08 22:45:00,
2013-03-08 17:50:00,42.3,27.3,30.42,East,95,1.0,2.0,55,0.00,,CLR,0.00,VWS V14.00,2013-03-08 22:50:00,
2013-03-08 17:55:00,42.0,27.5,30.42,East,97,0.0,3.0,56,0.00,,CLR,0.00,VWS V14.00,2013-03-08 22:55:00,
2013-03-08 18:00:00,41.6,27.1,30.42,East,98,0.0,0.0,56,0.00,,CLR,0.00,VWS V14.00,2013-03-08 23:00:00,
2013-03-08 18:05:00,41.3,27.2,30.43,East,79,2.0,5.0,57,0.00,,CLR,0.00,VWS V14.00,2013-03-08 23:05:00,
2013-03-08 18:10:00,41.0,27.0,30.42,East,84,0.0,2.0,57,0.00,,CLR,0.00,VWS V14.00,2013-03-08 23:10:00,
2013-03-08 18:15:00,40.6,27.0,30.42,East,87,0.0,2.0,58,0.00,,CLR,0.00,VWS V14.00,2013-03-08 23:15:00,
2013-03-08 18:20:00,40.2,27.0,30.42,East,96,0.0,0.0,59,0.00,,CLR,0.00,VWS V14.00,2013-03-08 23:20:00,
2013-03-08 18:25:00,39.7,27.0,30.42,ENE,76,2.0,2.0,60,0.00,,CLR,0.00,VWS V14.00,2013-03-08 23:25:00,
2013-03-08 18:30:00,39.3,26.6,30.42,ESE,115,0.0,0.0,60,0.00,,CLR,0.00,VWS V14.00,2013-03-08 23:30:00,
2013-03-08 18:35:00,38.9,26.6,30.42,ESE,115,0.0,2.0,61,0.00,,CLR,0.00,VWS V14.00,2013-03-08 23:35:00,
2013-03-08 18:40:00,38.6,26.3,30.42,ESE,108,0.0,0.0,61,0.00,,CLR,0.00,VWS V14.00,2013-03-08 23:40:00,
2013-03-08 18:45:00,38.2,26.3,30.42,ESE,108,0.0,0.0,62,0.00,,CLR,0.00,VWS V14.00,2013-03-08 23:45:00,
2013-03-08 18:50:00,37.9,26.1,30.42,ESE,108,0.0,0.0,62,0.00,,CLR,0.00,VWS V14.00,2013-03-08 23:50:00,
2013-03-08 18:55:00,37.5,26.1,30.42,ESE,108,0.0,0.0,63,0.00,,CLR,0.00,VWS V14.00,2013-03-08 23:55:00,
2013-03-08 19:00:00,37.2,26.2,30.42,ESE,108,0.0,2.0,64,0.00,,CLR,0.00,VWS V14.00,2013-03-09 00:00:00,
2013-03-08 19:05:00,37.0,26.3,30.42,ESE,107,0.0,2.0,65,0.00,,CLR,0.00,VWS V14.00,2013-03-09 00:05:00,
2013-03-08 19:10:00,36.7,26.1,30.42,ESE,110,0.0,2.0,65,0.00,,CLR,0.00,VWS V14.00,2013-03-09 00:10:00,
2013-03-08 19:15:00,36.4,25.8,30.42,ESE,111,0.0,3.0,65,0.00,,CLR,0.00,VWS V14.00,2013-03-09 00:15:00,
2013-03-08 19:20:00,36.2,26.0,30.42,ESE,111,0.0,0.0,66,0.00,,CLR,0.00,VWS V14.00,2013-03-09 00:20:00,
2013-03-08 19:25:00,36.0,26.1,30.42,ESE,111,0.0,0.0,67,0.00,,CLR,0.00,VWS V14.00,2013-03-09 00:25:00,
2013-03-08 19:30:00,35.7,25.8,30.42,ESE,111,0.0,0.0,67,0.00,,CLR,0.00,VWS V14.00,2013-03-09 00:30:00,
2013-03-08 19:35:00,35.5,25.6,30.42,ESE,111,0.0,0.0,67,0.00,,CLR,0.00,VWS V14.00,2013-03-09 00:35:00,
2013-03-08 19:40:00,35.2,25.7,30.42,ESE,111,0.0,0.0,68,0.00,,CLR,0.00,VWS V14.00,2013-03-09 00:40:00,
2013-03-08 19:45:00,35.0,25.5,30.43,ESE,111,0.0,0.0,68,0.00,,CLR,0.00,VWS V14.00,2013-03-09 00:45:00,
2013-03-08 19:50:00,34.8,25.7,30.42,ESE,111,0.0,0.0,69,0.00,,CLR,0.00,VWS V14.00,2013-03-09 00:50:00,
2013-03-08 19:55:00,34.6,25.5,30.42,ESE,111,0.0,0.0,69,0.00,,CLR,0.00,VWS V14.00,2013-03-09 00:55:00,
2013-03-08 20:00:00,34.4,25.6,30.42,ESE,111,0.0,0.0,70,0.00,,CLR,0.00,VWS V14.00,2013-03-09 01:00:00,
2013-03-08 20:05:00,34.4,25.6,30.42,ESE,111,0.0,0.0,70,0.00,,CLR,0.00,VWS V14.00,2013-03-09 01:05:00,
2013-03-08 20:10:00,34.2,25.5,30.42,ESE,111,0.0,0.0,70,0.00,,CLR,0.00,VWS V14.00,2013-03-09 01:10:00,
2013-03-08 20:15:00,34.0,25.6,30.42,ESE,111,0.0,0.0,71,0.00,,CLR,0.00,VWS V14.00,2013-03-09 01:15:00,
2013-03-08 20:20:00,33.7,25.0,30.42,ESE,111,0.0,0.0,70,0.00,,CLR,0.00,VWS V14.00,2013-03-09 01:20:00,
2013-03-08 20:25:00,33.5,25.5,30.43,ESE,111,0.0,0.0,72,0.00,,CLR,0.00,VWS V14.00,2013-03-09 01:25:00,
2013-03-08 20:30:00,33.3,25.3,30.43,ESE,111,0.0,0.0,72,0.00,,CLR,0.00,VWS V14.00,2013-03-09 01:30:00,
2013-03-08 20:35:00,33.1,25.4,30.43,ESE,111,0.0,0.0,73,0.00,,CLR,0.00,VWS V14.00,2013-03-09 01:35:00,
2013-03-08 20:40:00,32.9,25.2,30.43,ESE,111,0.0,0.0,73,0.00,,CLR,0.00,VWS V14.00,2013-03-09 01:40:00,
2013-03-08 20:45:00,32.8,25.1,30.43,ESE,111,0.0,0.0,73,0.00,,CLR,0.00,VWS V14.00,2013-03-09 01:45:00,
2013-03-08 20:50:00,32.8,25.1,30.43,ESE,111,0.0,0.0,73,0.00,,CLR,0.00,VWS V14.00,2013-03-09 01:50:00,
2013-03-08 20:55:00,32.8,25.4,30.43,ESE,111,0.0,0.0,74,0.00,,CLR,0.00,VWS V14.00,2013-03-09 01:55:00,
2013-03-08 21:00:00,32.7,25.3,30.43,ESE,111,0.0,0.0,74,0.00,,CLR,0.00,VWS V14.00,2013-03-09 02:00:00,
2013-03-08 21:05:00,32.6,25.2,30.44,ESE,111,0.0,0.0,74,0.00,,CLR,0.00,VWS V14.00,2013-03-09 02:05:00,
2013-03-08 21:10:00,32.3,25.0,30.44,ESE,111,0.0,0.0,74,0.00,,CLR,0.00,VWS V14.00,2013-03-09 02:10:00,
2013-03-08 21:15:00,32.0,25.0,30.44,ESE,111,0.0,0.0,75,0.00,,CLR,0.00,VWS V14.00,2013-03-09 02:15:00,
2013-03-08 21:20:00,31.8,24.8,30.44,ESE,111,0.0,0.0,75,0.00,,CLR,0.00,VWS V14.00,2013-03-09 02:20:00,
2013-03-08 21:25:00,31.5,24.8,30.44,ESE,111,0.0,0.0,76,0.00,,CLR,0.00,VWS V14.00,2013-03-09 02:25:00,
2013-03-08 21:30:00,31.2,24.5,30.44,ESE,111,0.0,0.0,76,0.00,,CLR,0.00,VWS V14.00,2013-03-09 02:30:00,
2013-03-08 21:35:00,30.7,24.4,30.44,ESE,111,0.0,0.0,77,0.00,,CLR,0.00,VWS V14.00,2013-03-09 02:35:00,
2013-03-08 21:40:00,30.5,24.2,30.44,ESE,111,0.0,0.0,77,0.00,,CLR,0.00,VWS V14.00,2013-03-09 02:40:00,
2013-03-08 21:45:00,30.3,24.3,30.44,ESE,111,0.0,0.0,78,0.00,,CLR,0.00,VWS V14.00,2013-03-09 02:45:00,
2013-03-08 21:50:00,30.1,24.1,30.44,ESE,111,0.0,0.0,78,0.00,,CLR,0.00,VWS V14.00,2013-03-09 02:50:00,
2013-03-08 21:55:00,30.1,24.4,30.44,ESE,111,0.0,0.0,79,0.00,,CLR,0.00,VWS V14.00,2013-03-09 02:55:00,
2013-03-08 22:00:00,30.0,24.3,30.44,ESE,111,0.0,0.0,79,0.00,,CLR,0.00,VWS V14.00,2013-03-09 03:00:00,
2013-03-08 22:05:00,29.9,24.2,30.44,ESE,111,0.0,0.0,79,0.00,,CLR,0.00,VWS V14.00,2013-03-09 03:05:00,
2013-03-08 22:10:00,30.0,24.3,30.44,ESE,111,0.0,0.0,79,0.00,,CLR,0.00,VWS V14.00,2013-03-09 03:10:00,
2013-03-08 22:15:00,30.0,24.6,30.44,ESE,111,0.0,0.0,80,0.00,,CLR,0.00,VWS V14.00,2013-03-09 03:15:00,
2013-03-08 22:20:00,30.0,24.6,30.44,ESE,111,0.0,0.0,80,0.00,,CLR,0.00,VWS V14.00,2013-03-09 03:20:00,
2013-03-08 22:25:00,30.0,24.6,30.44,ESE,111,0.0,0.0,80,0.00,,CLR,0.00,VWS V14.00,2013-03-09 03:25:00,
2013-03-08 22:30:00,30.0,24.6,30.44,ESE,111,0.0,0.0,80,0.00,,CLR,0.00,VWS V14.00,2013-03-09 03:30:00,
2013-03-08 22:35:00,30.1,24.7,30.44,ESE,111,0.0,0.0,80,0.00,,CLR,0.00,VWS V14.00,2013-03-09 03:35:00,
2013-03-08 22:40:00,30.1,24.7,30.44,ESE,111,0.0,0.0,80,0.00,,CLR,0.00,VWS V14.00,2013-03-09 03:40:00,
2013-03-08 22:45:00,30.0,24.6,30.44,ESE,111,0.0,0.0,80,0.00,,CLR,0.00,VWS V14.00,2013-03-09 03:45:00,
2013-03-08 22:50:00,29.8,24.1,30.44,ESE,111,0.0,0.0,79,0.00,,CLR,0.00,VWS V14.00,2013-03-09 03:50:00,
2013-03-08 22:55:00,29.6,24.2,30.44,ESE,111,0.0,0.0,80,0.00,,CLR,0.00,VWS V14.00,2013-03-09 03:55:00,
2013-03-08 23:00:00,29.5,24.1,30.44,ESE,111,0.0,0.0,80,0.00,,CLR,0.00,VWS V14.00,2013-03-09 04:00:00,
2013-03-08 23:05:00,29.4,24.0,30.44,ESE,111,0.0,0.0,80,0.00,,CLR,0.00,VWS V14.00,2013-03-09 04:05:00,
2013-03-08 23:10:00,29.4,24.0,30.44,ESE,111,0.0,0.0,80,0.00,,CLR,0.00,VWS V14.00,2013-03-09 04:10:00,
2013-03-08 23:15:00,29.4,24.0,30.44,ESE,111,0.0,0.0,80,0.00,,CLR,0.00,VWS V14.00,2013-03-09 04:15:00,
2013-03-08 23:20:00,29.4,24.3,30.44,ESE,111,0.0,0.0,81,0.00,,CLR,0.00,VWS V14.00,2013-03-09 04:20:00,
2013-03-08 23:25:00,29.2,24.1,30.43,ESE,111,0.0,0.0,81,0.00,,CLR,0.00,VWS V14.00,2013-03-09 04:25:00,
2013-03-08 23:30:00,29.0,23.9,30.43,ESE,111,0.0,0.0,81,0.00,,CLR,0.00,VWS V14.00,2013-03-09 04:30:00,
2013-03-08 23:35:00,28.8,23.7,30.43,ESE,111,0.0,0.0,81,0.00,,CLR,0.00,VWS V14.00,2013-03-09 04:35:00,
2013-03-08 23:40:00,28.6,23.5,30.42,ESE,111,0.0,0.0,81,0.00,,CLR,0.00,VWS V14.00,2013-03-09 04:40:00,
2013-03-08 23:45:00,28.6,23.8,30.42,ESE,111,0.0,0.0,82,0.00,,CLR,0.00,VWS V14.00,2013-03-09 04:45:00,
2013-03-08 23:50:00,28.4,23.3,30.42,ESE,111,0.0,0.0,81,0.00,,CLR,0.00,VWS V14.00,2013-03-09 04:50:00,
2013-03-08 23:55:00,28.2,23.4,30.42,ESE,111,0.0,0.0,82,0.00,,CLR,0.00,VWS V14.00,2013-03-09 04:55:00,